Location: Gage
(33.9753°N, 118.1267°W)
Time: 11:11:58
(UTC+00:00)

COSMOS 2428 - Pass Details

Date: 03 August 2024
Orbit: 842 x 857 km, 70.9° (Epoch: 10 September)

Event Time Altitude Azimuth Distance (km) Brightness Sun altitude
Exits shadow 12:05:31 15° 254° (WSW) 2,108 4.2 -12.1°
Maximum altitude 12:08:54 26° 300° (WNW) 1,616 3.9 -11.5°
Drops below altitude 10° 12:13:35 10° 355° (N) 2,476 5.5 -10.6°
Sets 12:16:28 0° 9° (N) 3,417 6.4 -10.1°
